Flag for Belgium Weather past 2 weeks in Eupen, Belgium

Now
49 °F

Overcast.


Feels Like: 46 °F
Forecast: 44 / 57 °F
Wind: 7 mph from South

Location: Spa / La Sauveniere

Current Time: Oct 24, 2014 at 5:08:38 PM

Latest Report: Oct 24, 2014 at 4:00 PM


Visibility: 17 mi

Pressure: 30.12 "Hg

Humidity: 85%

Dew point: 45 °F

Location of EupenLocation

Historic Weather in Eupen — Graph

°F

Eupen temperature yesterday

Maximum temperature yesterday: 50 °F (at 3:00 PM)
Minimum temperature yesterday: 42 °F (at 2:00 AM)
Average temperature yesterday: 45 °F

Past Weeks' High & Low Weather Summary

 TemperatureHumidityPressure
High69 °F (Oct 18, 4:00 PM)100% (Oct 11, 3:00 AM)30.28 "Hg (Oct 11, 3:00 AM)
Low38 °F (Oct 22, 8:00 AM)45% (Oct 14, 3:00 PM)29.59 "Hg (Oct 21, 4:00 PM)
Average52 °F88%29.96 "Hg
* Reported Oct 9 3:00 PM — Oct 24 3:00 PM, Eupen, Weather by CustomWeather, © 2014

Note: Actual official high and low records may vary slightly from our data, if they occured in-between our weather recording intervals... More about our weather records

Advertising

Eupen weather history for previous 24 hours

 ConditionsComfort  
Time TempWeatherWind HumidityBarometerVisibility
3:00 PM
Oct 24
49 °FOvercast.6 mph84%30.13 "Hg13 mi
2:00 PM49 °FOvercast.6 mph86%30.14 "Hg12 mi
1:00 PM49 °FOvercast.5 mph85%30.16 "Hg9 mi
12:00 PM48 °FOvercast.3 mph86%30.17 "Hg9 mi
11:00 AM47 °FOvercast.5 mph89%30.19 "Hg8 mi
10:00 AM47 °FOvercast.5 mph90%30.18 "Hg8 mi
9:00 AM46 °FLow clouds.5 mph93%30.18 "Hg8 mi
8:00 AM46 °FLow clouds.3 mph95%30.17 "Hg6 mi
7:00 AM46 °FDrizzle. Low clouds.3 mph97%30.19 "Hg2 mi
6:00 AM46 °FDrizzle. Low clouds.3 mph97%30.19 "Hg3 mi
5:00 AM46 °FLow clouds.3 mph96%30.19 "HgN/A
4:00 AM46 °FFog.3 mph96%30.20 "Hg3 mi
3:00 AM46 °FOvercast.2 mph96%30.21 "Hg10 mi
2:00 AM46 °FLow clouds.2 mph96%30.22 "HgN/A
1:00 AM46 °FFog.2 mph97%30.24 "Hg2 mi
12:00 AM47 °FLow clouds.3 mph95%30.24 "HgN/A
11:00 PM
Oct 23
47 °FLow clouds.5 mph97%30.25 "HgN/A
10:00 PM47 °FOvercast.5 mph96%30.25 "Hg6 mi
9:00 PM47 °FOvercast.3 mph96%30.24 "Hg7 mi
8:00 PM47 °FLow clouds.3 mph96%30.24 "Hg7 mi
7:00 PM47 °FLow clouds.3 mph95%30.23 "HgN/A
6:00 PM48 °FLow clouds.3 mph95%30.24 "HgN/A
5:00 PM48 °FLow clouds.5 mph95%30.24 "HgN/A
Weather by CustomWeather, © 2014

See weather overviewHow to use our weather pages